When you browse on this site, cookies collect data to enhance your experience and personalize the content and advertising you see.
Visit our Privacy Policy to learn more. By continuing to use the site, you agree to this use of cookies and data.
  • In Romania
  • List of Countries
  • For 7 days
  • Water Temperature
  • Weather Map
  • Weather Widgets
  • user-avatar
    Login

    Hourly Weather Cajuru

    Today, 11 December, Wednesday

    Time Temperature Precipitation Wind Pressure Humidity
    00:00 +21°C° 0.2 mm 1 mps 693 mmHg 94%
    01:00 +21°C° 0.1 mm 1 mps 693 mmHg 95%
    02:00 +21°C° 0.1 mm 1 mps 692 mmHg 95%
    03:00 +21°C° 0.1 mm 1 mps 692 mmHg 95%
    04:00 +21°C° 0.2 mm 1 mps 692 mmHg 95%
    05:00 +21°C° 0.2 mm 1 mps 692 mmHg 95%
    06:00 +21°C° 0.2 mm 1 mps 692 mmHg 95%
    07:00 +22°C° 0.1 mm 1 mps 693 mmHg 94%
    08:00 +23°C° 0.1 mm 1 mps 693 mmHg 92%
    09:00 +21°C° 0.1 mm 0 mps 693 mmHg 91%
    10:00 +24°C° 0.9 mm 1 mps 693 mmHg 89%
    11:00 +25°C° 0.9 mm 1 mps 693 mmHg 88%
    12:00 +25°C° 0.9 mm 1 mps 693 mmHg 86%
    13:00 +25°C° 0.5 mm 1 mps 692 mmHg 87%
    14:00 +25°C° 0.5 mm 1 mps 691 mmHg 87%
    15:00 +25°C° 0.5 mm 1 mps 691 mmHg 87%
    16:00 +24°C° 1 mm 1 mps 691 mmHg 90%
    17:00 +23°C° 1 mm 1 mps 691 mmHg 93%
    18:00 +22°C° 1 mm 1 mps 691 mmHg 96%
    19:00 +22°C° 0.1 mm 1 mps 691 mmHg 96%
    20:00 +22°C° 0.1 mm 1 mps 691 mmHg 95%
    21:00 +22°C° 0.1 mm 1 mps 692 mmHg 95%
    22:00 +22°C° 0 mm 1 mps 692 mmHg 95%
    23:00 +21°C° 0 mm 1 mps 692 mmHg 94%

    Tomorrow, 12 December, Thursday

    Time Temperature Precipitation Wind Pressure Humidity
    00:00 +21°C° 0 mm 1 mps 691 mmHg 94%
    01:00 +21°C° 0 mm 1 mps 691 mmHg 94%
    02:00 +21°C° 0 mm 1 mps 691 mmHg 94%
    03:00 +20°C° 0 mm 2 mps 691 mmHg 95%
    04:00 +21°C° 0.2 mm 1 mps 691 mmHg 95%
    05:00 +21°C° 0.2 mm 1 mps 691 mmHg 95%
    06:00 +21°C° 0.2 mm 1 mps 691 mmHg 95%
    07:00 +22°C° 0.2 mm 1 mps 692 mmHg 92%
    08:00 +24°C° 0.2 mm 2 mps 693 mmHg 89%
    09:00 +25°C° 0.2 mm 3 mps 693 mmHg 86%
    10:00 +26°C° 0.6 mm 2 mps 693 mmHg 84%
    11:00 +27°C° 0.6 mm 2 mps 693 mmHg 81%
    12:00 +27°C° 0.6 mm 2 mps 692 mmHg 78%
    13:00 +27°C° 0.7 mm 2 mps 692 mmHg 79%
    14:00 +28°C° 0.7 mm 2 mps 691 mmHg 79%
    15:00 +28°C° 0.7 mm 2 mps 691 mmHg 79%
    16:00 +26°C° 1.9 mm 2 mps 691 mmHg 83%
    17:00 +25°C° 1.9 mm 2 mps 691 mmHg 88%
    18:00 +24°C° 1.9 mm 2 mps 691 mmHg 92%
    19:00 +24°C° 1.1 mm 2 mps 691 mmHg 94%
    20:00 +23°C° 1.1 mm 1 mps 692 mmHg 95%
    21:00 +22°C° 1.1 mm 1 mps 693 mmHg 96%
    22:00 +22°C° 0 mm 1 mps 693 mmHg 96%
    23:00 +22°C° 0 mm 1 mps 693 mmHg 96%

    Day after tomorrow, 13 December, Friday

    Time Temperature Precipitation Wind Pressure Humidity
    00:00 +22°C° 0 mm 1 mps 693 mmHg 97%
    01:00 +21°C° 0.2 mm 1 mps 692 mmHg 96%
    02:00 +21°C° 0.2 mm 1 mps 692 mmHg 96%
    03:00 +19°C° 0.2 mm 0 mps 692 mmHg 96%
    04:00 +19°C° 0.7 mm 0 mps 692 mmHg 96%
    05:00 +19°C° 0.7 mm 0 mps 693 mmHg 96%
    06:00 +19°C° 0.7 mm 0 mps 693 mmHg 96%
    07:00 +21°C° 0.2 mm 0 mps 693 mmHg 92%
    08:00 +22°C° 0.2 mm 0 mps 694 mmHg 88%
    09:00 +23°C° 0.2 mm 0 mps 694 mmHg 84%
    10:00 +26°C° 0.7 mm 1 mps 694 mmHg 81%
    11:00 +27°C° 0.7 mm 1 mps 694 mmHg 78%
    12:00 +28°C° 0.7 mm 1 mps 694 mmHg 75%
    13:00 +28°C° 0.7 mm 1 mps 694 mmHg 74%
    14:00 +28°C° 0.7 mm 1 mps 693 mmHg 73%
    15:00 +27°C° 0.7 mm 0 mps 693 mmHg 72%
    16:00 +28°C° 0.7 mm 1 mps 693 mmHg 77%
    17:00 +27°C° 0.7 mm 1 mps 693 mmHg 82%
    18:00 +26°C° 0.7 mm 1 mps 692 mmHg 87%
    19:00 +25°C° 0.8 mm 1 mps 693 mmHg 87%
    20:00 +24°C° 0.8 mm 1 mps 693 mmHg 88%
    21:00 +23°C° 0.8 mm 1 mps 694 mmHg 89%
    22:00 +23°C° 0.4 mm 1 mps 694 mmHg 90%
    23:00 +23°C° 0.4 mm 1 mps 694 mmHg 92%

    14 December, Saturday

    Time Temperature Precipitation Wind Pressure Humidity
    00:00 +22°C° 0.4 mm 1 mps 694 mmHg 93%
    01:00 +22°C° 0 mm 1 mps 694 mmHg 93%
    02:00 +22°C° 0 mm 1 mps 694 mmHg 93%
    03:00 +22°C° 0 mm 1 mps 693 mmHg 93%
    04:00 +21°C° 0 mm 2 mps 694 mmHg 93%
    05:00 +21°C° 0 mm 2 mps 694 mmHg 93%
    06:00 +20°C° 0 mm 2 mps 695 mmHg 93%
    07:00 +22°C° 0 mm 3 mps 695 mmHg 88%
    08:00 +24°C° 0 mm 3 mps 696 mmHg 82%
    09:00 +26°C° 0 mm 4 mps 696 mmHg 76%
    10:00 +27°C° 0 mm 4 mps 696 mmHg 72%
    11:00 +28°C° 0 mm 4 mps 696 mmHg 69%
    12:00 +29°C° 0 mm 4 mps 696 mmHg 65%
    13:00 +29°C° 0.1 mm 4 mps 696 mmHg 65%
    14:00 +29°C° 0.1 mm 4 mps 695 mmHg 66%
    15:00 +28°C° 0.1 mm 4 mps 694 mmHg 66%
    16:00 +27°C° 0.4 mm 3 mps 694 mmHg 73%
    17:00 +25°C° 0.4 mm 3 mps 694 mmHg 80%
    18:00 +24°C° 0.4 mm 2 mps 694 mmHg 88%
    19:00 +23°C° 0.5 mm 2 mps 694 mmHg 89%
    20:00 +23°C° 0.5 mm 2 mps 695 mmHg 91%
    21:00 +21°C° 0.5 mm 2 mps 695 mmHg 93%
    22:00 +22°C° 0.1 mm 1 mps 695 mmHg 93%
    23:00 +22°C° 0.1 mm 1 mps 695 mmHg 92%

    15 December, Sunday

    Time Temperature Precipitation Wind Pressure Humidity
    00:00 +22°C° 0.1 mm 1 mps 695 mmHg 91%
    01:00 +22°C° 0 mm 1 mps 695 mmHg 91%
    02:00 +22°C° 0 mm 1 mps 695 mmHg 91%
    03:00 +22°C° 0 mm 1 mps 694 mmHg 91%
    04:00 +22°C° 0.2 mm 1 mps 695 mmHg 91%
    05:00 +20°C° 0.2 mm 2 mps 695 mmHg 92%
    06:00 +20°C° 0.2 mm 2 mps 695 mmHg 92%
    07:00 +21°C° 0 mm 3 mps 695 mmHg 89%
    08:00 +22°C° 0 mm 3 mps 696 mmHg 86%
    09:00 +23°C° 0 mm 4 mps 696 mmHg 82%
    10:00 +25°C° 0 mm 4 mps 696 mmHg 78%
    11:00 +26°C° 0 mm 4 mps 696 mmHg 73%
    12:00 +28°C° 0 mm 5 mps 696 mmHg 68%
    13:00 +28°C° 0.1 mm 4 mps 696 mmHg 67%
    14:00 +28°C° 0.1 mm 4 mps 695 mmHg 67%
    15:00 +29°C° 0.1 mm 3 mps 694 mmHg 67%
    16:00 +28°C° 0.6 mm 3 mps 694 mmHg 73%
    17:00 +27°C° 0.6 mm 2 mps 694 mmHg 79%
    18:00 +26°C° 0.6 mm 2 mps 694 mmHg 85%
    19:00 +24°C° 0.1 mm 2 mps 694 mmHg 87%
    20:00 +23°C° 0.1 mm 2 mps 694 mmHg 89%
    21:00 +21°C° 0.1 mm 2 mps 694 mmHg 91%
    22:00 +21°C° 0 mm 2 mps 694 mmHg 91%
    23:00 +20°C° 0 mm 2 mps 694 mmHg 91%

    16 December, Monday

    Time Temperature Precipitation Wind Pressure Humidity
    00:00 +20°C° 0 mm 2 mps 694 mmHg 91%
    01:00 +20°C° 0 mm 2 mps 693 mmHg 91%
    02:00 +19°C° 0 mm 2 mps 693 mmHg 91%
    03:00 +19°C° 0 mm 2 mps 692 mmHg 91%
    04:00 +19°C° 0 mm 2 mps 692 mmHg 92%
    05:00 +19°C° 0 mm 2 mps 693 mmHg 92%
    06:00 +19°C° 0 mm 2 mps 693 mmHg 93%
    07:00 +21°C° 0 mm 3 mps 693 mmHg 86%
    08:00 +24°C° 0 mm 3 mps 694 mmHg 80%
    09:00 +26°C° 0 mm 4 mps 694 mmHg 74%
    10:00 +28°C° 0.1 mm 4 mps 694 mmHg 70%
    11:00 +29°C° 0.1 mm 5 mps 694 mmHg 66%
    12:00 +30°C° 0.1 mm 5 mps 694 mmHg 62%
    13:00 +30°C° 0.1 mm 5 mps 693 mmHg 62%
    14:00 +30°C° 0.1 mm 4 mps 693 mmHg 62%
    15:00 +30°C° 0.1 mm 4 mps 692 mmHg 61%
    16:00 +29°C° 0 mm 3 mps 692 mmHg 66%
    17:00 +28°C° 0 mm 3 mps 691 mmHg 71%
    18:00 +27°C° 0 mm 2 mps 691 mmHg 77%
    19:00 +26°C° 0 mm 2 mps 691 mmHg 80%
    20:00 +24°C° 0 mm 2 mps 691 mmHg 84%
    21:00 +23°C° 0 mm 2 mps 691 mmHg 88%
    22:00 +23°C° 0 mm 1 mps 691 mmHg 88%
    23:00 +22°C° 0 mm 1 mps 691 mmHg 89%
    Show more